sat.trackr.live / text

‹ back to catalog

EUTELSAT 70B

NORAD 39020 · 2012-069A

PAYLOAD ACTIVE UNKNOWN

§ Identity

Operator
Country
EUTE
Launch date
2012-12-03
Launch site
SEAL
Launch vehicle
Mass (kg)
RCS (m²)
22.59

Purposes: comms

External: N2YO · Heavens-Above · Gunter

§ Orbital elements

Epoch: 2026-05-25T04:04:45.331104Z

Period
1,436.10 min
Inclination
0.0675°
Eccentricity
0.0004408
Mean motion
1.00271634 rev/d
Perigee alt
35,768.1 km
Apogee alt
35,805.2 km
Semi-major
42,164.8 km
B*
0.0000e+0
RAAN
13.5765°
Arg perigee
42.1265°
Mean anomaly
318.7489°
Rev number
4,927

§ Raw data

EUTELSAT 70B1 39020U 12069A   26145.16996911 -.00000046  00000+0  00000+0 0  99912 39020   0.0675  13.5765 0004408  42.1265 318.7489  1.00271634 49273

JSON: /api/v1/satellites/39020 · /tle

For live sub-satellite position, see the globe view (requires WebGL).

§ Visibility from observer

Set your observer location to see the next 7 days of passes ≥ 10°. The values pass through the URL so the page stays shareable.

No JS? Fill the form by hand. The geolocation button needs JavaScript.